[{"OBJECT_NAME":"O3B FM5","OBJECT_ID":"2013-031A","EPOCH":"2026-09-12T04:36:49.412448","MEAN_MOTION":5.00115703,"ECCENTRICITY":0.00024956,"INCLINATION":0.0828,"RA_OF_ASC_NODE":318.5242,"ARG_OF_PERICENTER":198.246,"MEAN_ANOMALY":203.241,"EPHEMERIS_TYPE":0,"CLASSIFICATION_TYPE":"U","NORAD_CAT_ID":39188,"ELEMENT_SET_NO":999,"REV_AT_EPOCH":24138,"BSTAR":0,"MEAN_MOTION_DOT":-2.8e-7,"MEAN_MOTION_DDOT":0},{"OBJECT_NAME":"O3B FM4","OBJECT_ID":"2013-031B","EPOCH":"2026-09-10T17:06:04.307040","MEAN_MOTION":5.00115971,"ECCENTRICITY":0.00044943,"INCLINATION":0.0404,"RA_OF_ASC_NODE":352.761,"ARG_OF_PERICENTER":149.7641,"MEAN_ANOMALY":217.5054,"EPHEMERIS_TYPE":0,"CLASSIFICATION_TYPE":"U","NORAD_CAT_ID":39189,"ELEMENT_SET_NO":999,"REV_AT_EPOCH":24131,"BSTAR":0,"MEAN_MOTION_DOT":-2.8e-7,"MEAN_MOTION_DDOT":0},{"OBJECT_NAME":"O3B FM2","OBJECT_ID":"2013-031C","EPOCH":"2026-09-11T23:27:20.173248","MEAN_MOTION":5.0011611,"ECCENTRICITY":0.00026124,"INCLINATION":0.0348,"RA_OF_ASC_NODE":358.6108,"ARG_OF_PERICENTER":167.5788,"MEAN_ANOMALY":193.8173,"EPHEMERIS_TYPE":0,"CLASSIFICATION_TYPE":"U","NORAD_CAT_ID":39190,"ELEMENT_SET_NO":999,"REV_AT_EPOCH":24144,"BSTAR":0,"MEAN_MOTION_DOT":-2.8e-7,"MEAN_MOTION_DDOT":0},{"OBJECT_NAME":"O3B PFM","OBJECT_ID":"2013-031D","EPOCH":"2026-09-12T04:35:31.018272","MEAN_MOTION":5.00116067,"ECCENTRICITY":0.00048789,"INCLINATION":0.0618,"RA_OF_ASC_NODE":338.2371,"ARG_OF_PERICENTER":169.3616,"MEAN_ANOMALY":212.4311,"EPHEMERIS_TYPE":0,"CLASSIFICATION_TYPE":"U","NORAD_CAT_ID":39191,"ELEMENT_SET_NO":999,"REV_AT_EPOCH":24101,"BSTAR":0,"MEAN_MOTION_DOT":-2.8e-7,"MEAN_MOTION_DDOT":0},{"OBJECT_NAME":"O3B FM3","OBJECT_ID":"2014-038A","EPOCH":"2026-09-12T06:11:35.860416","MEAN_MOTION":5.001158,"ECCENTRICITY":0.00035018,"INCLINATION":0.0486,"RA_OF_ASC_NODE":353.4907,"ARG_OF_PERICENTER":221.2929,"MEAN_ANOMALY":145.1935,"EPHEMERIS_TYPE":0,"CLASSIFICATION_TYPE":"U","NORAD_CAT_ID":40079,"ELEMENT_SET_NO":999,"REV_AT_EPOCH":21739,"BSTAR":0,"MEAN_MOTION_DOT":-2.8e-7,"MEAN_MOTION_DDOT":0},{"OBJECT_NAME":"O3B FM7","OBJECT_ID":"2014-038B","EPOCH":"2026-09-12T00:06:12.075552","MEAN_MOTION":5.0011567,"ECCENTRICITY":0.00029172,"INCLINATION":0.0422,"RA_OF_ASC_NODE":348.3442,"ARG_OF_PERICENTER":143.0257,"MEAN_ANOMALY":228.6549,"EPHEMERIS_TYPE":0,"CLASSIFICATION_TYPE":"U","NORAD_CAT_ID":40080,"ELEMENT_SET_NO":999,"REV_AT_EPOCH":22221,"BSTAR":0,"MEAN_MOTION_DOT":-2.8e-7,"MEAN_MOTION_DDOT":0},{"OBJECT_NAME":"O3B FM6","OBJECT_ID":"2014-038C","EPOCH":"2026-09-11T19:57:10.517472","MEAN_MOTION":5.00115806,"ECCENTRICITY":0.00025752,"INCLINATION":0.0458,"RA_OF_ASC_NODE":352.1714,"ARG_OF_PERICENTER":176.6296,"MEAN_ANOMALY":191.2045,"EPHEMERIS_TYPE":0,"CLASSIFICATION_TYPE":"U","NORAD_CAT_ID":40081,"ELEMENT_SET_NO":999,"REV_AT_EPOCH":22216,"BSTAR":0,"MEAN_MOTION_DOT":-2.8e-7,"MEAN_MOTION_DDOT":0},{"OBJECT_NAME":"O3B FM8","OBJECT_ID":"2014-038D","EPOCH":"2026-09-11T11:38:05.389440","MEAN_MOTION":5.00116154,"ECCENTRICITY":0.0002761,"INCLINATION":0.045,"RA_OF_ASC_NODE":351.3625,"ARG_OF_PERICENTER":179.515,"MEAN_ANOMALY":189.1271,"EPHEMERIS_TYPE":0,"CLASSIFICATION_TYPE":"U","NORAD_CAT_ID":40082,"ELEMENT_SET_NO":999,"REV_AT_EPOCH":22225,"BSTAR":0,"MEAN_MOTION_DOT":-2.8e-7,"MEAN_MOTION_DDOT":0},{"OBJECT_NAME":"O3B FM10","OBJECT_ID":"2014-083A","EPOCH":"2026-09-12T02:40:56.020800","MEAN_MOTION":5.00115419,"ECCENTRICITY":0.0002299,"INCLINATION":0.0488,"RA_OF_ASC_NODE":347.3308,"ARG_OF_PERICENTER":208.3403,"MEAN_ANOMALY":164.3217,"EPHEMERIS_TYPE":0,"CLASSIFICATION_TYPE":"U","NORAD_CAT_ID":40348,"ELEMENT_SET_NO":999,"REV_AT_EPOCH":21424,"BSTAR":0,"MEAN_MOTION_DOT":-2.8e-7,"MEAN_MOTION_DDOT":0},{"OBJECT_NAME":"O3B FM11","OBJECT_ID":"2014-083B","EPOCH":"2026-09-12T02:59:11.084640","MEAN_MOTION":5.00115542,"ECCENTRICITY":0.00021924,"INCLINATION":0.0541,"RA_OF_ASC_NODE":348.024,"ARG_OF_PERICENTER":169.1251,"MEAN_ANOMALY":202.8605,"EPHEMERIS_TYPE":0,"CLASSIFICATION_TYPE":"U","NORAD_CAT_ID":40349,"ELEMENT_SET_NO":999,"REV_AT_EPOCH":21426,"BSTAR":0,"MEAN_MOTION_DOT":-2.8e-7,"MEAN_MOTION_DDOT":0},{"OBJECT_NAME":"O3B FM12","OBJECT_ID":"2014-083C","EPOCH":"2026-09-10T22:50:55.136256","MEAN_MOTION":5.00115999,"ECCENTRICITY":0.00024265,"INCLINATION":0.0535,"RA_OF_ASC_NODE":348.6907,"ARG_OF_PERICENTER":180.2202,"MEAN_ANOMALY":191.0938,"EPHEMERIS_TYPE":0,"CLASSIFICATION_TYPE":"U","NORAD_CAT_ID":40350,"ELEMENT_SET_NO":999,"REV_AT_EPOCH":21421,"BSTAR":0,"MEAN_MOTION_DOT":-2.8e-7,"MEAN_MOTION_DDOT":0},{"OBJECT_NAME":"O3B FM9","OBJECT_ID":"2014-083D","EPOCH":"2026-09-12T04:16:35.225472","MEAN_MOTION":5.00116103,"ECCENTRICITY":0.0002603,"INCLINATION":0.0542,"RA_OF_ASC_NODE":346.828,"ARG_OF_PERICENTER":182.2768,"MEAN_ANOMALY":190.9008,"EPHEMERIS_TYPE":0,"CLASSIFICATION_TYPE":"U","NORAD_CAT_ID":40351,"ELEMENT_SET_NO":999,"REV_AT_EPOCH":21442,"BSTAR":0,"MEAN_MOTION_DOT":-2.8e-7,"MEAN_MOTION_DDOT":0},{"OBJECT_NAME":"LEO 1 (LEO VANTAGE 1)","OBJECT_ID":"2018-004C","EPOCH":"2026-09-12T05:11:18.158496","MEAN_MOTION":14.68260364,"ECCENTRICITY":0.03486488,"INCLINATION":99.2409,"RA_OF_ASC_NODE":184.9031,"ARG_OF_PERICENTER":172.0279,"MEAN_ANOMALY":188.6671,"EPHEMERIS_TYPE":0,"CLASSIFICATION_TYPE":"U","NORAD_CAT_ID":43113,"ELEMENT_SET_NO":999,"REV_AT_EPOCH":45025,"BSTAR":0.000099857208,"MEAN_MOTION_DOT":0.00001375,"MEAN_MOTION_DDOT":0},{"OBJECT_NAME":"O3B FM15","OBJECT_ID":"2018-024A","EPOCH":"2026-09-12T01:05:00.212640","MEAN_MOTION":5.00115855,"ECCENTRICITY":0.00025588,"INCLINATION":0.056,"RA_OF_ASC_NODE":356.2474,"ARG_OF_PERICENTER":176.068,"MEAN_ANOMALY":187.6883,"EPHEMERIS_TYPE":0,"CLASSIFICATION_TYPE":"U","NORAD_CAT_ID":43231,"ELEMENT_SET_NO":999,"REV_AT_EPOCH":15537,"BSTAR":0,"MEAN_MOTION_DOT":-2.8e-7,"MEAN_MOTION_DDOT":0},{"OBJECT_NAME":"O3B FM16","OBJECT_ID":"2018-024B","EPOCH":"2026-09-12T02:20:18.933504","MEAN_MOTION":5.00116034,"ECCENTRICITY":0.00025462,"INCLINATION":0.0585,"RA_OF_ASC_NODE":359.5448,"ARG_OF_PERICENTER":171.5161,"MEAN_ANOMALY":188.9435,"EPHEMERIS_TYPE":0,"CLASSIFICATION_TYPE":"U","NORAD_CAT_ID":43232,"ELEMENT_SET_NO":999,"REV_AT_EPOCH":15529,"BSTAR":0,"MEAN_MOTION_DOT":-2.8e-7,"MEAN_MOTION_DDOT":0},{"OBJECT_NAME":"O3B FM14","OBJECT_ID":"2018-024C","EPOCH":"2026-09-12T03:19:07.653792","MEAN_MOTION":5.00115822,"ECCENTRICITY":0.00028226,"INCLINATION":0.0582,"RA_OF_ASC_NODE":0.8589,"ARG_OF_PERICENTER":168.9563,"MEAN_ANOMALY":190.1905,"EPHEMERIS_TYPE":0,"CLASSIFICATION_TYPE":"U","NORAD_CAT_ID":43233,"ELEMENT_SET_NO":999,"REV_AT_EPOCH":15529,"BSTAR":0,"MEAN_MOTION_DOT":-2.8e-7,"MEAN_MOTION_DDOT":0},{"OBJECT_NAME":"O3B FM13","OBJECT_ID":"2018-024D","EPOCH":"2026-09-12T00:06:11.411136","MEAN_MOTION":5.00115656,"ECCENTRICITY":0.00009948,"INCLINATION":0.057,"RA_OF_ASC_NODE":342.1916,"ARG_OF_PERICENTER":118.9964,"MEAN_ANOMALY":258.823,"EPHEMERIS_TYPE":0,"CLASSIFICATION_TYPE":"U","NORAD_CAT_ID":43234,"ELEMENT_SET_NO":999,"REV_AT_EPOCH":15540,"BSTAR":0,"MEAN_MOTION_DOT":-2.8e-7,"MEAN_MOTION_DDOT":0},{"OBJECT_NAME":"O3B FM20","OBJECT_ID":"2019-020A","EPOCH":"2026-09-11T23:08:50.496576","MEAN_MOTION":5.0011572,"ECCENTRICITY":0.00022327,"INCLINATION":0.0542,"RA_OF_ASC_NODE":353.2834,"ARG_OF_PERICENTER":175.7208,"MEAN_ANOMALY":191.0005,"EPHEMERIS_TYPE":0,"CLASSIFICATION_TYPE":"U","NORAD_CAT_ID":44112,"ELEMENT_SET_NO":999,"REV_AT_EPOCH":13591,"BSTAR":0,"MEAN_MOTION_DOT":-2.8e-7,"MEAN_MOTION_DDOT":0},{"OBJECT_NAME":"O3B FM19","OBJECT_ID":"2019-020B","EPOCH":"2026-09-12T04:35:30.626016","MEAN_MOTION":5.00116022,"ECCENTRICITY":0.00029975,"INCLINATION":0.0774,"RA_OF_ASC_NODE":341.0536,"ARG_OF_PERICENTER":163.1211,"MEAN_ANOMALY":215.8453,"EPHEMERIS_TYPE":0,"CLASSIFICATION_TYPE":"U","NORAD_CAT_ID":44113,"ELEMENT_SET_NO":999,"REV_AT_EPOCH":13578,"BSTAR":0,"MEAN_MOTION_DOT":-2.8e-7,"MEAN_MOTION_DDOT":0},{"OBJECT_NAME":"O3B FM17","OBJECT_ID":"2019-020C","EPOCH":"2026-09-12T01:43:11.430912","MEAN_MOTION":5.00115699,"ECCENTRICITY":0.00025605,"INCLINATION":0.0479,"RA_OF_ASC_NODE":14.273,"ARG_OF_PERICENTER":158.8558,"MEAN_ANOMALY":186.8746,"EPHEMERIS_TYPE":0,"CLASSIFICATION_TYPE":"U","NORAD_CAT_ID":44114,"ELEMENT_SET_NO":999,"REV_AT_EPOCH":13587,"BSTAR":0,"MEAN_MOTION_DOT":-2.8e-7,"MEAN_MOTION_DDOT":0},{"OBJECT_NAME":"O3B FM18","OBJECT_ID":"2019-020D","EPOCH":"2026-09-11T14:50:16.921824","MEAN_MOTION":5.00115419,"ECCENTRICITY":0.00027379,"INCLINATION":0.0545,"RA_OF_ASC_NODE":352.8386,"ARG_OF_PERICENTER":178.3371,"MEAN_ANOMALY":188.8287,"EPHEMERIS_TYPE":0,"CLASSIFICATION_TYPE":"U","NORAD_CAT_ID":44115,"ELEMENT_SET_NO":999,"REV_AT_EPOCH":13596,"BSTAR":0,"MEAN_MOTION_DOT":-2.8e-7,"MEAN_MOTION_DDOT":0},{"OBJECT_NAME":"SALSAT","OBJECT_ID":"2020-068K","EPOCH":"2026-09-11T23:28:21.147456","MEAN_MOTION":15.30885844,"ECCENTRICITY":0.00094697,"INCLINATION":97.888,"RA_OF_ASC_NODE":263.4175,"ARG_OF_PERICENTER":9.1845,"MEAN_ANOMALY":350.9566,"EPHEMERIS_TYPE":0,"CLASSIFICATION_TYPE":"U","NORAD_CAT_ID":46495,"ELEMENT_SET_NO":999,"REV_AT_EPOCH":32863,"BSTAR":0.00020261281,"MEAN_MOTION_DOT":0.00005968,"MEAN_MOTION_DDOT":0},{"OBJECT_NAME":"O3B MPOWER F1","OBJECT_ID":"2022-174A","EPOCH":"2026-09-12T06:30:54.282240","MEAN_MOTION":5.0011444,"ECCENTRICITY":0.00069143,"INCLINATION":0.0432,"RA_OF_ASC_NODE":340.9705,"ARG_OF_PERICENTER":195.7853,"MEAN_ANOMALY":139.3473,"EPHEMERIS_TYPE":0,"CLASSIFICATION_TYPE":"U","NORAD_CAT_ID":54755,"ELEMENT_SET_NO":999,"REV_AT_EPOCH":6971,"BSTAR":0,"MEAN_MOTION_DOT":-2.8e-7,"MEAN_MOTION_DDOT":0},{"OBJECT_NAME":"O3B MPOWER F2","OBJECT_ID":"2022-174B","EPOCH":"2026-09-12T01:30:07.540128","MEAN_MOTION":5.0011829,"ECCENTRICITY":0.00055139,"INCLINATION":0.0401,"RA_OF_ASC_NODE":344.742,"ARG_OF_PERICENTER":180.739,"MEAN_ANOMALY":194.5347,"EPHEMERIS_TYPE":0,"CLASSIFICATION_TYPE":"U","NORAD_CAT_ID":54756,"ELEMENT_SET_NO":999,"REV_AT_EPOCH":6979,"BSTAR":0,"MEAN_MOTION_DOT":-2.8e-7,"MEAN_MOTION_DDOT":0},{"OBJECT_NAME":"O3B MPOWER F4","OBJECT_ID":"2023-059A","EPOCH":"2026-09-12T03:02:36.282048","MEAN_MOTION":5.00115023,"ECCENTRICITY":0.0007701,"INCLINATION":0.0603,"RA_OF_ASC_NODE":342.9417,"ARG_OF_PERICENTER":185.6439,"MEAN_ANOMALY":191.4317,"EPHEMERIS_TYPE":0,"CLASSIFICATION_TYPE":"U","NORAD_CAT_ID":56367,"ELEMENT_SET_NO":999,"REV_AT_EPOCH":6294,"BSTAR":0,"MEAN_MOTION_DOT":-2.8e-7,"MEAN_MOTION_DDOT":0},{"OBJECT_NAME":"O3B MPOWER F3","OBJECT_ID":"2023-059B","EPOCH":"2026-09-11T13:26:50.937792","MEAN_MOTION":5.00114921,"ECCENTRICITY":0.00064401,"INCLINATION":0.0607,"RA_OF_ASC_NODE":342.0462,"ARG_OF_PERICENTER":181.0984,"MEAN_ANOMALY":196.8764,"EPHEMERIS_TYPE":0,"CLASSIFICATION_TYPE":"U","NORAD_CAT_ID":56368,"ELEMENT_SET_NO":999,"REV_AT_EPOCH":5905,"BSTAR":0,"MEAN_MOTION_DOT":-2.8e-7,"MEAN_MOTION_DDOT":0},{"OBJECT_NAME":"O3B MPOWER F9","OBJECT_ID":"2025-153A","EPOCH":"2026-09-12T03:04:38.373888","MEAN_MOTION":5.00115385,"ECCENTRICITY":0.00073008,"INCLINATION":0.0665,"RA_OF_ASC_NODE":357.3633,"ARG_OF_PERICENTER":186.1927,"MEAN_ANOMALY":176.4387,"EPHEMERIS_TYPE":0,"CLASSIFICATION_TYPE":"U","NORAD_CAT_ID":64866,"ELEMENT_SET_NO":999,"REV_AT_EPOCH":2391,"BSTAR":0,"MEAN_MOTION_DOT":-2.8e-7,"MEAN_MOTION_DDOT":0},{"OBJECT_NAME":"O3B MPOWER F10","OBJECT_ID":"2025-153B","EPOCH":"2026-09-12T02:15:53.482464","MEAN_MOTION":5.00114844,"ECCENTRICITY":0.00044999,"INCLINATION":0.0622,"RA_OF_ASC_NODE":355.5922,"ARG_OF_PERICENTER":270.7541,"MEAN_ANOMALY":93.6022,"EPHEMERIS_TYPE":0,"CLASSIFICATION_TYPE":"U","NORAD_CAT_ID":64867,"ELEMENT_SET_NO":999,"REV_AT_EPOCH":2638,"BSTAR":0,"MEAN_MOTION_DOT":-2.8e-7,"MEAN_MOTION_DDOT":0}]